Location: Unspecified
(0.0000°N, 0.0000°E)
Time: 18:58:50
(UTC+00:00)

Vanguard 2 Rocket - Pass Details

Date: 27 November 2019
Orbit: 554 x 3326 km, 32.9° (Epoch: 09 December)

Event Time Altitude Azimuth Distance (km) Brightness Sun altitude
Rises 17:23:18 0° 231° (SW) 6,935 13.1 5.7°
Reaches altitude 10° 17:28:29 10° 229° (SW) 5,609 12.6 4.5°
Maximum altitude 17:44:02 72° 147° (SSE) 1,945 8.6 0.8°
Drops below altitude 10° 17:52:34 10° 64° (ENE) 3,262 9.1 -1.2°
Enters shadow 17:54:28 - 62° (ENE) 3,854 9.4 -1.6°
Sets 17:54:48 0° 62° (ENE) 3,964 - -1.7°
